Terug naar catalogus

PIESAT-2 12

ActiefWetenschapSSO
NORAD 62336·PAYLOAD·🇨🇳 China

Gelanceerd Dec 16, 2024 vanaf Taiyuan Satellite Launch Center

Loading…

Volgende Passages (komende 24 uur)

TLE

VersSource: Space-Track

Epoch: Sep 14, 2026, 13:57 UTC

1 62336U 24241D   26257.58171738  .00005903  00000-0  31720-3 0  9998
2 62336  97.5304 204.1325 0001717  70.1157 290.0260 15.15274912 96331

Volg PIESAT-2 12 in realtime met AllMySat

Download on the App Store